Terug naar catalogus

CZ-6A DEB

ActiefPO
NORAD 61080·DEBRIS·🇨🇳 China

Gelanceerd Aug 6, 2024 vanaf Taiyuan Satellite Launch Center

Loading…

Volgende Passages (komende 24 uur)

TLE

VersSource: Space-Track

Epoch: Sep 14, 2026, 19:32 UTC

1 61080U 24140MW  26257.81438052  .00003214  00000-0  94238-3 0  9998
2 61080  89.2384 284.5131 0017716 314.9825  44.9942 14.43629102107809

Volg CZ-6A DEB in realtime met AllMySat

Download on the App Store